Location: Ferchesar
(52.6477°N, 12.4298°E)
Time: 16:05:33
(UTC+01:00)

Vanguard 1 - Pass Details

Date: 15 December 2021
Orbit: 652 x 3830 km, 34.2° (Epoch: 22 January)

Event Time Altitude Azimuth Distance (km) Brightness Sun altitude
Rises 00:35:13 0° 259° (W) 6,848 - -60.1°
Reaches altitude 10° 00:39:37 10° 253° (WSW) 6,161 - -59.9°
Maximum altitude 00:58:39 44° 191° (S) 4,682 - -58.9°
Exits shadow 01:14:59 18° 135° (SE) 5,948 13.8 -57.8°
Drops below altitude 10° 01:18:44 10° 129° (SE) 6,465 14.1 -57.5°
Sets 01:23:32 0° 123° (ESE) 7,195 14.5 -57.1°
